Hourly Data Report for July 08, 2018

TORONTO CITY
ONTARIO
Current Station Operator: ECCC - MSC

43°40'00.000" N
79°24'00.000" W
112.50 m
6158355
71508
XTO

Download Data

Hourly Data (July 2018)
Hourly Data Report for July 8, 2018
TIME
LST
Temp Definition
°C
Dew Point Definition
°C
Rel Hum Definition
%
Precip. Amount Definition
mm

Wind Dir Definition
10's deg

Wind Spd Definition
km/h
Visibility Definition
km
Stn Press Definition
kPa
Hmdx Definition


Wind Chill Definition


Weather Definition


00:00 19.7 13.8 69 0.0 LegendMM LegendMM   101.28     LegendNANA
01:00 18.9 13.9 73 0.0 LegendMM LegendMM   101.23     LegendNANA
02:00 19.7 13.7 68 0.0 LegendMM LegendMM   101.23     LegendNANA
03:00 18.2 13.5 74 0.0 LegendMM LegendMM   101.21     LegendNANA
04:00 17.3 12.3 72 0.0 LegendMM LegendMM   101.29     LegendNANA
05:00 17.0 11.6 71 0.0 LegendMM LegendMM   101.34     LegendNANA
06:00 17.7 12.0 69 0.0 LegendMM LegendMM   101.36     LegendNANA
07:00 20.6 12.2 58 0.0 LegendMM LegendMM   101.38     LegendNANA
08:00 23.6 11.0 45 0.0 LegendMM LegendMM   101.40 25   LegendNANA
09:00 23.9 12.7 49 0.0 LegendMM LegendMM   101.39 27   LegendNANA
10:00 24.2 10.7 42 0.0 LegendMM LegendMM   101.38 26   LegendNANA
11:00 24.8 12.6 47 0.0 LegendMM LegendMM   101.36 27   LegendNANA
12:00 26.0 11.5 41 0.0 LegendMM LegendMM   101.33 28   LegendNANA
13:00 27.4 10.7 35 0.0 LegendMM LegendMM   101.28 29   LegendNANA
14:00 27.0 10.7 36 0.0 LegendMM LegendMM   101.20 29   LegendNANA
15:00 27.3 11.4 37 0.0 LegendMM LegendMM   101.11 29   LegendNANA
16:00 28.1 12.8 39 0.0 LegendMM LegendMM   101.08 31   LegendNANA
17:00 27.5 10.6 35 0.0 LegendMM LegendMM   101.07 29   LegendNANA
18:00 26.9 9.1 33 0.0 LegendMM LegendMM   101.02 28   LegendNANA
19:00 26.3 8.5 32 0.0 LegendMM LegendMM   100.98 27   LegendNANA
20:00 25.0 7.8 33 0.0 LegendMM LegendMM   100.95 25   LegendNANA
21:00 24.7 11.0 42 0.0 LegendMM LegendMM   100.93 26   LegendNANA
22:00 22.6 13.0 55 0.0 LegendMM LegendMM   100.91 25   LegendNANA
23:00 21.9 10.2 47 0.0 LegendMM LegendMM   100.92     LegendNANA

Notes on Data Quality.

Legend

  • E = Estimated
  • M = Missing
  • NA = Not Available*
  • [empty] = Indicates an unobserved value
Date modified: